Regional Weather Roundup
Issued by NWS

Home | Current Version | Previous Version | Text Only | Print | Product List | Glossary On
Versions: 1 2 3 4 5 6 7 8 9 10 11 12 13 14 15 16 17 18 19 20 21 22 23 24 25 26 27 28 29 30 31 32 33 34 35 36 37 38 39 40 41 42 43 44 45 46 47 48 49 50
040
ASUS43 KDMX 181206
RWRIA

WEATHER ROUNDUP FOR IOWA
NATIONAL WEATHER SERVICE DES MOINES IA
600 AM CST THU JAN 18 2018

NOTE: "FAIR" INDICATES FEW OR NO CLOUDS BELOW 12,000 FEET WITH NO
SIGNIFICANT WEATHER AND/OR OBSTRUCTIONS TO VISIBILITY.

* - THESE STATIONS ARE NOT NWS STATIONS...THUS NOT UNDER NWS
QUALITY CONTROL.  THEY ALSO DO NOT REPORT WEATHER SUCH
AS PRECIPITATION OR FOG.

IAZ001>003-012>014-020>022-031>034-043>046-181300-
   NORTHWEST IOWA

CITY           SKY/WX    TMP DP  RH WIND       PRES   REMARKS
CARROLL *      CLOUDY    19  12  73 SW16G23   30.07F WCI   5
CHEROKEE *     CLOUDY    18  15  87 SW7       30.03S WCI   9
DENISON *      CLOUDY    18  12  79 S8        30.11F WCI   7
LE MARS *      CLOUDY    18  14  86 S7        30.03F WCI   8
ORANGE CITY *  CLOUDY    19  18  93 S7        29.99F WCI  10
SHELDON *      CLOUDY    18  14  86 CALM      30.00S
SIOUX CITY     CLOUDY    12   9  87 SE6       30.04F WCI   3
6HR MIN TEMP:  10; 6HR MAX TEMP:  19;

SPENCER        CLOUDY    20  14  77 SW10      30.01F WCI   9
6HR MIN TEMP:  17; 6HR MAX TEMP:  22;

STORM LAKE *   FLURRIES  19  14  79 SW20      29.99F WCI   4
$$

IAZ055>058-069>071-079>083-090>094-181300-
   SOUTHWEST IOWA

CITY           SKY/WX    TMP DP  RH WIND       PRES   REMARKS
ATLANTIC *     CLOUDY    14   9  79 SW9       30.15S WCI   2
AUDUBON *      CLOUDY    18  10  73 CALM      30.12F
CLARINDA *     CLOUDY    14  10  85 S9          N/A  WCI   2
COUNCIL BLFS * CLOUDY    18  10  73 SW12      30.13F WCI   5
CRESTON *      CLOUDY    16   9  73 SW10      30.17F WCI   3
HARLAN  *      CLOUDY    12   9  85 S8        30.17S WCI   1
LAMONI         CLOUDY    16   8  71 SW12      30.21R WCI   3
6HR MIN TEMP:  16; 6HR MAX TEMP:  18;

RED OAK *      CLOUDY    14   9  79 S9        30.17F WCI   2
SHENANDOAH *   CLOUDY    19  10  68 S13       30.18F WCI   7
$$

IAZ047>049-059>061-072>074-084-181300-
   CENTRAL IOWA

CITY           SKY/WX    TMP DP  RH WIND       PRES   REMARKS
AMES           CLOUDY    17  11  77 SW9       30.10F WCI   6
6HR MIN TEMP:  15; 6HR MAX TEMP:  21;

ANKENY *       CLOUDY    21  10  63 SW9       30.14F WCI  11
BOONE *        CLOUDY    21  12  68 SW13G20   30.08F WCI   9
CHARITON *     CLOUDY    16  10  79 SW13      30.18F WCI   2
DES MOINES     CLOUDY    20   9  62 SW10      30.13F WCI   9
6HR MIN TEMP:  20; 6HR MAX TEMP:  22;

GRINNELL*      CLOUDY    17  11  77 SW16      30.13F WCI   2
KNOXVILLE *    FLURRIES  19   9  63 SW15G21   30.14F WCI   5
MARSHALLTOWN   CLOUDY    19  11  70 W9        30.10F WCI   8
6HR MIN TEMP:  17; 6HR MAX TEMP:  20;

NEWTON *       CLOUDY    18  10  73 SW12      30.13F WCI   5
PELLA *        CLOUDY    20  11  67 SW9G16    30.17F WCI   9
PERRY *          N/A     17   9  68 SW9       30.12S WCI   6
$$

IAZ004>006-015-016-023>025-035-036-181300-
   NORTH CENTRAL IOWA

CITY           SKY/WX    TMP DP  RH WIND       PRES   REMARKS
ALGONA *       CLOUDY    19  19 100 SW15      30.00S WCI   5
CLARION *      CLOUDY    16  16 100 SW10      30.03F WCI   3
ESTHERVILLE    CLOUDY    19  15  84 SW12      29.98F WCI   7
6HR MIN TEMP:  19; 6HR MAX TEMP:  21;

FORT DODGE *   CLOUDY    17  12  80 S13       30.03F WCI   4
MASON CITY     CLOUDY    19  12  74 SW12      30.02F WCI   7
6HR MIN TEMP:  18; 6HR MAX TEMP:  19;

FOREST CITY *    N/A     19  14  79 SW6       30.01F WCI  11
WEBSTER CITY * CLOUDY    18  12  79 SW17      30.02F WCI   2
IOWA FALLS *     N/A     17  12  82 S9        30.06F WCI   5
$$

IAZ007>011-017>019-026>030-037>042-050>054-066-181300-
   NORTHEAST IOWA

CITY           SKY/WX    TMP DP  RH WIND       PRES   REMARKS
CEDAR RAPIDS     N/A     18  10  71 SW9       30.13F WCI   7
6HR MIN TEMP:  16; 6HR MAX TEMP:  19;

CHARLES CITY *   N/A     18  12  79 SW8       30.04F WCI   7
CLINTON *        N/A     16  11  80 W12       30.17F WCI   3
DECORAH *        N/A     18  12  79 SW7G16    30.01F WCI   8
DUBUQUE          N/A     16   9  74 S12       30.08F WCI   3
6HR MIN TEMP:  15; 6HR MAX TEMP:  18;

MONTICELLO *     N/A     16  10  79 SW6       30.11F WCI   7
OELWEIN *        N/A     14  12  92 S12       30.07F WCI   0
WATERLOO         N/A     16  10  77 SW9       30.08F WCI   4
6HR MIN TEMP:  14; 6HR MAX TEMP:  18;

$$

IAZ064-065-067-068-078-181300-
   EAST CENTRAL IOWA

CITY           SKY/WX    TMP DP  RH WIND       PRES   REMARKS
DAVENPORT        N/A     18  10  71 SW12      30.19F WCI   5
6HR MIN TEMP:  18; 6HR MAX TEMP:  19;

IOWA CITY        N/A     18   9  68 SW3       30.20F
6HR MIN TEMP:  16; 6HR MAX TEMP:  20;

MT. PLEASANT * CLOUDY    18  10  73 SW13      30.22F WCI   4
MUSCATINE *      N/A     19  10  68 SW12      30.22S WCI   7
QUAD CITIES      N/A     18  10  71 SW9       30.19F WCI   7
6HR MIN TEMP:  18; 6HR MAX TEMP:  19;

$$

IAZ062-063-075>077-085>089-095>099-181300-
   SOUTHEAST IOWA

CITY           SKY/WX    TMP DP  RH WIND       PRES   REMARKS
BURLINGTON     CLOUDY    16   8  71 SW10      30.23F WCI   4
6HR MIN TEMP:  16; 6HR MAX TEMP:  17;

FAIRFIELD *    CLOUDY    18   9  68 SW10      30.20F WCI   6
FORT MADISON * CLOUDY    16  10  79 SW9       30.25S WCI   4
KEOKUK *       CLOUDY    16  10  79 SW13      30.26S WCI   2
OSKALOOSA *      N/A     18  11  76 SW10      30.18F WCI   6
OTTUMWA        CLOUDY    20   9  62 SW13      30.19F WCI   7
6HR MIN TEMP:  18; 6HR MAX TEMP:  20;

WASHINGTON *   CLOUDY    18  12  79 SW14      30.20F WCI   4
$$

ABBREVIATIONS USED IN REMARKS
   TC - TEMPERATURES IN CELSIUS
  WCI - WIND CHILL INDEX
   HX - HEAT INDEX
  VSB - VISIBILITY
$$





USA.gov is the U.S. government's official web portal to all federal, state and local government web resources and services.